User: anonymous   Login
Location: Unspecified
(0.0000°N, 0.0000°E)
Time: 03:20:58
(UTC+00:00)
Language:

GEESAT 5-09 - Orbit

View from above orbital plane
View from above orbital plane
View from above satellite
View from above satellite

Ground track
Ground track

The orbit is defined by the following mean orbital elements,

1 65558U          26145.39549421 +.00000000 +00000-0 +18716-3 0 00003
2 65558  49.9795 144.6066 0008436 183.3104 176.7780 14.84073834    00
Epoch (UTC): 25 May 2026 09:29:30
Eccentricity: 0.0008436
inclination: 49.9795°
perigee height: 611 km
apogee height: 622 km
right ascension of ascending node: 144.6066°
argument of perigee: 183.3104°
revolutions per day: 14.84073834
mean anomaly at epoch: 176.7780°

The dashed part of the orbit path shows where the satellite is in the earth's shadow,  

DLR